Regional Weather Roundup
Issued by NWS Charleston, SC

Current Version | Previous Version | Text Only | Print | Product List | Glossary On
Versions: 1 2 3 4 5 6 7 8 9 10 11 12 13 14 15 16 17 18 19 20 21 22 23 24 25 26 27 28 29 30 31 32 33 34 35 36 37 38 39 40 41 42 43 44 45 46 47 48 49 50
570 ASUS42 KCHS 240712 RWRCHS REGIONAL WEATHER ROUNDUP NATIONAL WEATHER SERVICE CHARLESTON SC 200 AM EST TUE JAN 24 2017 NOTE: "FAIR" INDICATES FEW OR NO CLOUDS BELOW 12,000 FEET WITH NO SIGNIFICANT WEATHER AND/OR OBSTRUCTIONS TO VISIBILITY. NOT ALL STATIONS ARE QUALITY CONTROLLED. USE DATA WITH CAUTION... ESPECIALLY DEWPOINT OBSERVATIONS. SCZ027-030-031-034>040-042>050-240800- ...SOUTHEAST SOUTH CAROLINA... CITY SKY/WX TMP DP RH WIND PRES REMARKS N CHARLESTON PTCLDY 55 48 77 W13 29.55R WATERFRONT PRK N/A 57 52 83 W8 29.53S MOUNT PLEASANT FAIR 55 52 88 NW5 29.55R JOHNS ISLAND FAIR 55 50 82 W13G21 29.56R PINOPOLIS N/A 55 54 94 W12 29.46R MONCKS CORNER FAIR 52 50 93 W5 29.55R SUMMERVILLE FAIR 55 50 82 W10G16 29.57R BEAUFORT MCAS CLEAR 54 46 74 W10 29.59R BEAUFORT ARPT FAIR 54 46 76 W15G21 29.59R HILTON HEAD IS CLEAR 54 46 76 NW10G17 29.61R WALTERBORO SUNNY 52 46 82 W8 29.59R ALLENDALE FAIR 52 45 76 VRB6 29.60R ...SOUTHERN MIDLANDS AND PEE DEE... CITY SKY/WX TMP DP RH WIND PRES REMARKS GEORGETOWN PTSUNNY 52 50 93 W7 29.54R KINGSTREE CLOUDY 52 46 82 NW7 29.55R ORANGEBURG CLEAR 53 46 77 W9 29.57R BARNWELL FAIR 54 46 76 W9 29.60R AIKEN FAIR 48 43 81 W7 29.63R MANNING PTSUNNY 52 48 87 CALM 29.55R COLUMBIA PTCLDY 52 46 80 W8 29.56R SUMTER CLOUDY 53 48 83 NW7 29.53R FLORENCE PTCLDY 49 45 86 NW7 29.54R MYRTLE BEACH PTCLDY 52 46 82 W9 29.53R N MYRTLE BEACH MOCLDY 51 48 89 NW8 29.49R $$ GAZ063-065-086>088-099>101-113>116-118-119-134>141-150-240800- ...SOUTHEAST GEORGIA... CITY SKY/WX TMP DP RH WIND PRES REMARKS SAVANNAH ARPT CLEAR 54 44 69 W16 29.63R HUNTER AAF CLEAR 54 49 83 W18G24 29.60R FORT STEWART CLEAR 54 44 69 W13 29.64R STATESBORO CLEAR 53 47 79 W14 29.65R SYLVANIA SUNNY N/A N/A N/A W10 29.63R CLAXTON FAIR N/A N/A N/A SW8G21 29.66R ...CSRA...CENTRAL AND FAR SOUTHEAST GEORGIA... CITY SKY/WX TMP DP RH WIND PRES REMARKS THOMSON CLEAR 52 46 79 NW7G18 29.69R AUGUSTA-BUSH NOT AVBL AUGUSTA-DANIEL CLEAR 52 41 66 W8 29.62R SWAINSBORO FAIR 52 45 76 W12G21 29.68R VIDALIA CLEAR 54 50 87 W10G21 29.69R EASTMAN FAIR 53 41 62 NW7 29.74S HAZLEHURST FAIR 55 50 84 W5 29.70R ALMA CLEAR 55 47 74 W12 29.71R WAYCROSS CLEAR 58 53 80 NW13G18 29.71R JESUP FAIR 57 45 62 NW21G26 29.68R BAXLEY FAIR 55 52 88 W9G16 29.70R BRUNSWICK CLEAR 55 50 82 W10G18 29.67S SAINT SIMONS CLEAR 56 46 69 W8 29.66R $$ SCZ027-028-034-036>038-045-046-048>050-GAZ119-141-240800- ...LAKE AND SUPPLEMENTAL COASTAL OBSERVATIONS... STATION/POSITION TIME TEMP WIND PRES WAVE SWELL AIR SEA DIR/SP/G HT/PER HT/PER/DIR (UTC) (F) (DEG/KT/KT) (MB) (FT/S) (FT/S/D) WINYAH BAY 0545 53 290/ 5 999.0 LAKE MURRAY 0620 54 280/ 6/ 12 1000.3F ACE BASIN NERRS 0545 54 270/ 4 1001.0 FORT PULASKI 0648 300/ 19/ 23 1002.7R SAPELO ISLAND 0600 56 280/ 12 1004.0 $$ ANZ835-935-AMZ111-154-330-350-352-354-370-450-454-472-240800- ...C-MAN AND BUOY OBSERVATIONS... STATION/POSITION TIME TEMP WIND PRES WAVE SWELL AIR SEA DIR/SP/G HT/PER HT/PER/DIR (UTC) (F) (DEG/KT/KT) (MB) (FT/S) (FT/S/D) BUOY 41004 0550 61 68 300/ 21/ 25 998.6 8/ 8 3/120/12 BUOY 41008 0550 58 60 290/ 21/ 27 1002.0 4/ 4 2/270/12 FOLLY BEACH CMAN 0600 57 270/ 6/ 11 1000.6R CAPERS NEARSHORE 0608 56 56 290/ 10/ 12 999.6R FRIPP NEARSHORE 0608 57 58 300/ 17/ 25 1001.3R STATION/POSITION TIME TEMP WIND PRES WAVE SWELL AIR SEA DIR/SP/G HT/PER HT/PER/DIR (UTC) (F) (DEG/KT/KT) (MB) (FT/S) (FT/S/D) 5E ST. MARYS GA 0630 62 N/A 3/ 3 2/100/13 FRYING PAN BUOY 0650 58 69 290/ 21/ 27 997.1R 8/10 5/160/10 BUOY 41025 0650 53 75 310/ 25/ 31 992.6R 9/11 7/140/11 CAPE LOOKOUT NC 0600 52 310/ 20/ 25 993.8R BUOY 41002 0650 66 71 300/ 19/ 25 995.5R 16/11 13/260/11 BUOY 41010 NOT AVBL ST AUGUSTINE FL 0700 58 63 290/ 9/ 11 1006.7R $$

USA.gov is the U.S. government's official web portal to all federal, state and local government web resources and services.